TimeIST,TemperatureF,Dew PointF,Humidity,Sea Level PressureIn,VisibilityMPH,Wind Direction,Wind SpeedMPH,Gust SpeedMPH,PrecipitationIn,Events,Conditions,WindDirDegrees,DateUTC
12:40 AM,78.8,69.8,74,29.86,3.7,NW,9.2,-,N/A,,Scattered Clouds,320,2012-10-07 19:10:00
1:10 AM,78.8,71.6,78,29.83,3.7,NW,4.6,-,N/A,,Scattered Clouds,320,2012-10-07 19:40:00
1:40 AM,78.8,71.6,78,29.83,3.7,West,3.5,-,N/A,,Scattered Clouds,260,2012-10-07 20:10:00
2:10 AM,78.8,71.6,78,29.80,3.7,West,3.5,-,N/A,,Scattered Clouds,260,2012-10-07 20:40:00
2:30 AM,78,70,71,29.81,2,NW,4.6,,,,Haze,320,2012-10-07 21:00:00
2:40 AM,78.8,69.8,74,29.80,3.7,NW,4.6,-,N/A,,Scattered Clouds,320,2012-10-07 21:10:00
3:10 AM,78.8,69.8,74,29.80,3.7,NW,9.2,-,N/A,,Scattered Clouds,310,2012-10-07 21:40:00
4:10 AM,78.8,69.8,74,29.80,3.7,NW,6.9,-,N/A,,Scattered Clouds,310,2012-10-07 22:40:00
5:10 AM,78.8,69.8,74,29.80,3.7,WNW,4.6,-,N/A,,Scattered Clouds,290,2012-10-07 23:40:00
5:30 AM,78,72,76,29.79,2,West,3.5,,,,Haze,270,2012-10-08 00:00:00
6:10 AM,77.0,71.6,83,29.80,3.7,Variable,2.3,-,N/A,,Scattered Clouds,0,2012-10-08 00:40:00
7:10 AM,78.8,71.6,78,29.83,3.7,Calm,Calm,-,N/A,,Scattered Clouds,0,2012-10-08 01:40:00
7:40 AM,78.8,71.6,78,29.83,3.7,WNW,11.5,-,N/A,,Scattered Clouds,290,2012-10-08 02:10:00
8:10 AM,80.6,71.6,74,29.83,3.7,WNW,9.2,-,N/A,,Partly Cloudy,300,2012-10-08 02:40:00
8:30 AM,83,71,60,29.84,2,WNW,9.2,,,,Haze,290,2012-10-08 03:00:00
8:40 AM,82.4,71.6,70,29.83,3.7,NW,9.2,-,N/A,,Partly Cloudy,310,2012-10-08 03:10:00
9:10 AM,84.2,71.6,66,29.83,3.7,NW,6.9,-,N/A,,Partly Cloudy,310,2012-10-08 03:40:00
9:40 AM,86.0,71.6,62,29.83,3.7,NW,10.4,-,N/A,,Partly Cloudy,310,2012-10-08 04:10:00
10:10 AM,87.8,71.6,58,29.83,3.7,NW,8.1,-,N/A,,Partly Cloudy,320,2012-10-08 04:40:00
10:40 AM,89.6,71.6,55,29.83,3.7,WNW,5.8,-,N/A,,Partly Cloudy,290,2012-10-08 05:10:00
11:10 AM,91.4,69.8,49,29.83,3.7,West,3.5,-,N/A,,Partly Cloudy,280,2012-10-08 05:40:00
11:30 AM,93,70,37,29.80,2,,6.9,,,,Haze,,2012-10-08 06:00:00
11:40 AM,93.2,71.6,49,29.80,3.7,Variable,4.6,-,N/A,,Partly Cloudy,0,2012-10-08 06:10:00
12:10 PM,95.0,71.6,47,29.80,3.7,Variable,3.5,-,N/A,,Scattered Clouds,0,2012-10-08 06:40:00
12:40 PM,95.0,71.6,47,29.77,3.7,Variable,4.6,-,N/A,,Scattered Clouds,0,2012-10-08 07:10:00
1:10 PM,95.0,71.6,47,29.77,5.0,Variable,3.5,-,N/A,,Scattered Clouds,0,2012-10-08 07:40:00
1:40 PM,96.8,71.6,44,29.74,5.0,Variable,3.5,-,N/A,,Scattered Clouds,0,2012-10-08 08:10:00
2:10 PM,96.8,71.6,44,29.74,5.0,North,3.5,-,N/A,,Scattered Clouds,350,2012-10-08 08:40:00
2:30 PM,98,71,33,29.72,2,NNW,2.3,,,,Haze,340,2012-10-08 09:00:00
2:40 PM,96.8,71.6,44,29.71,5.0,East,13.8,-,N/A,,Scattered Clouds,80,2012-10-08 09:10:00
4:10 PM,86.0,77.0,74,29.71,3.7,WSW,6.9,-,N/A,,Mostly Cloudy,240,2012-10-08 10:40:00
4:40 PM,84.2,75.2,74,29.71,3.7,Variable,3.5,-,N/A,,Mostly Cloudy,0,2012-10-08 11:10:00
5:10 PM,84.2,75.2,74,29.71,3.7,NE,11.5,-,N/A,,Mostly Cloudy,50,2012-10-08 11:40:00
5:30 PM,82,77,82,29.72,2,East,16.1,,,,Haze,90,2012-10-08 12:00:00
5:40 PM,82.4,77.0,84,29.71,3.7,East,17.3,-,N/A,,Mostly Cloudy,100,2012-10-08 12:10:00
6:10 PM,82.4,77.0,84,29.74,3.7,East,10.4,-,N/A,,Mostly Cloudy,100,2012-10-08 12:40:00
6:40 PM,82.4,77.0,84,29.74,3.7,SE,5.8,-,N/A,,Mostly Cloudy,140,2012-10-08 13:10:00
7:40 PM,84.2,77.0,79,29.77,3.1,ESE,2.3,-,N/A,,Haze,110,2012-10-08 14:10:00
8:10 PM,84.2,77.0,79,29.80,3.1,SE,3.5,-,N/A,,Haze,140,2012-10-08 14:40:00
8:30 PM,82,76,76,29.81,2,SE,3.5,,,,Haze,140,2012-10-08 15:00:00
8:40 PM,82.4,77.0,84,29.80,3.1,SE,4.6,-,N/A,,Haze,140,2012-10-08 15:10:00
9:10 PM,82.4,77.0,84,29.83,3.1,ESE,3.5,-,N/A,,Haze,120,2012-10-08 15:40:00
9:40 PM,82.4,77.0,84,29.83,3.1,SSE,3.5,-,N/A,,Haze,150,2012-10-08 16:10:00
10:10 PM,82.4,75.2,79,29.83,3.1,SSW,3.5,-,N/A,,Haze,200,2012-10-08 16:40:00
10:40 PM,82.4,75.2,79,29.83,3.1,SSW,3.5,-,N/A,,Haze,200,2012-10-08 17:10:00
11:10 PM,82.4,75.2,79,29.83,3.1,SSW,4.6,-,N/A,,Haze,200,2012-10-08 17:40:00
11:30 PM,82,74,70,29.81,2,SSW,4.6,,,,Scattered Clouds,200,2012-10-08 18:00:00
11:40 PM,82.4,75.2,79,29.80,3.1,SSW,4.6,-,N/A,,Haze,210,2012-10-08 18:10:00